Flag for Germany Weather past 2 weeks in Aalen, Baden-Württemberg, Germany

31 °F

Low clouds.

Feels Like: 26 °F
Forecast: 16 / 37 °F
Wind: 5 mph from East

Location: Stoetten

Current Time: Nov 27, 2015 at 2:58:36 AM

Latest Report: Nov 27, 2015 at 2:00 AM

Visibility: 10 mi

Pressure: 30.21 "Hg

Humidity: 96%

Dew point: 30 °F

Location of AalenLocation

Historic Weather in Aalen — Graph


Aalen temperature yesterday

Maximum temperature yesterday: 33 °F (at 3:00 PM)
Minimum temperature yesterday: 31 °F (at 4:00 PM)
Average temperature yesterday: 32 °F

Past Weeks' High & Low Weather Summary

High60 °F (Nov 16, 2:00 PM)100% (Nov 20, 9:00 AM)30.47 "Hg (Nov 20, 9:00 AM)
Low24 °F (Nov 24, 5:00 PM)45% (Nov 16, 2:00 PM)29.41 "Hg (Nov 21, 2:00 PM)
Average40 °F86%30.05 "Hg
* Reported Nov 11 10:00 PM — Nov 26 10:00 PM, Aalen, Weather by CustomWeather, © 2015

Note: Actual official high and low records may vary slightly from our data, if they occured in-between our weather recording intervals... More about our weather records


Aalen weather history for previous 24 hours

Time TempWeatherWind HumidityBarometerVisibility
10:00 PM
Thu, Nov 26
32 °FFog.3 mph100%30.19 "Hg3 mi
9:00 PM32 °FLow clouds.2 mph99%30.18 "Hg5 mi
8:00 PM32 °FFog.2 mph100%30.17 "Hg2 mi
7:00 PM32 °FLight snow. Dense fog.2 mph100%30.15 "Hg1 mi
6:00 PM32 °FLight snow. Low clouds.3 mph100%30.13 "Hg2 mi
5:00 PM32 °FFog.3 mph100%30.10 "Hg2 mi
4:00 PM31 °FLow clouds.2 mph100%30.09 "Hg2 mi
3:00 PM33 °FLight snow. Low clouds.2 mph100%30.06 "Hg2 mi
2:00 PM33 °FLight rain. Low clouds.5 mph100%30.04 "Hg2 mi
1:00 PM32 °FLight snow. Low clouds.5 mph100%30.02 "Hg1 mi
12:00 PM32 °FLight snow. Dense fog.5 mph100%30.01 "Hg1 mi
11:00 AM32 °FLight snow. Dense fog.5 mph100%29.99 "Hg0 mi
10:00 AM32 °FSnow flurries. Ice fog.3 mph100%29.97 "Hg0 mi
9:00 AM32 °FSnow. Ice fog.5 mph100%29.95 "Hg1 mi
8:00 AM32 °FSnow flurries. Low clouds.6 mph100%29.93 "Hg1 mi
7:00 AM32 °FSnow flurries. Ice fog.5 mph100%29.90 "Hg0 mi
4:00 AM32 °FLow clouds.5 mph100%29.84 "Hg0 mi
3:00 AM32 °FLow clouds.5 mph100%29.83 "Hg0 mi
2:00 AM31 °FLight snow. Low clouds.5 mph100%29.82 "Hg0 mi
Weather by CustomWeather, © 2015

See weather overviewHow to use our weather pages